This demonstration page uses our WeatherBlox Daily Observations layout. Learn more.

41.55636, -103.73856

Hourly Observations for August 18, 2015

Temp ( °F °C ) Dew Point ( °F °C ) Humidity (%) Winds ( mph kmh ) Pressure ( in mb ) Visibility ( mi km ) Precip ( " mm )
12:03 am 00:03 Windy with Storms Likely 55 13 54 12 94 94 NNW 22 35 29.91 1013 1.5 2.41401 0 0
12:06 am 00:06 Cloudy with Heavy Thunderstorms 55 12.8 54 12.2 96 96 N 15 24 29.91 1013 1 1.60934 0.01 0.254
12:15 am 00:15 Cloudy with Light Thunderstorms 54 12.2 54 12.2 100 100 NNE 13 20 29.88 1012 3 4.82802 0.31 7.874
12:27 am 00:27 Cloudy with Light Thunderstorms 54 12.2 54 12.2 100 100 NE 7 11 29.88 1012 6 9.65604 0.36 9.144
12:53 am 00:53 Cloudy with Light Thunderstorms 54 12 N/A N/A WNW 3 6 29.93 1013 10 16.0934 0.38 9.652
1:00 am 01:00 Mostly Cloudy with Light Rain 54 12 N/A N/A NW 5 7 29.88 1012 10 16.0934 0 0
1:53 am 01:53 Clear 54 12 N/A N/A W 10 17 29.9 1013 10 16.0934 0 0.0254
2:34 am 02:34 Mostly Cloudy 54 12 N/A N/A WNW 15 24 29.91 1013 10 16.0934 0 0
2:43 am 02:43 Mostly Cloudy 54 12 N/A N/A WNW 15 24 29.91 1013 10 16.0934 0 0
2:53 am 02:53 Mostly Cloudy 54 12 N/A N/A WNW 16 26 29.91 1013 10 16.0934 0 0
3:38 am 03:38 Cloudy 55 13 55 13 100 100 WNW 21 33 29.91 1013 10 16.0934 0 0
3:53 am 03:53 Mostly Cloudy 54 12.2 54 12.2 100 100 WNW 16 26 29.91 1013 10 16.0934 0 0
4:53 am 04:53 Cloudy 54 12.2 51 10.6 90 90 WNW 13 20 29.92 1013 10 16.0934 0 0
5:53 am 05:53 Mostly Cloudy 53 11.7 48 8.9 83 83 WNW 10 17 29.92 1013 10 16.0934 0 0
6:06 am 06:06 Partly Cloudy 53 11.7 48 8.9 83 83 WNW 10 17 29.91 1013 10 16.0934 0 0
6:23 am 06:23 Mostly Cloudy 53 11.7 48 8.9 83 83 WNW 12 19 29.91 1013 10 16.0934 0 0
6:53 am 06:53 Cloudy 54 12.2 48 8.9 80 80 WNW 12 19 29.92 1013 10 16.0934 0 0
7:53 am 07:53 Cloudy 55 12.8 48 8.9 77 77 WNW 14 22 29.93 1014 10 16.0934 0 0
8:53 am 08:53 Cloudy 57 13.9 47 8.3 69 69 NW 17 28 29.93 1014 10 16.0934 0 0
9:44 am 09:44 Cloudy 57 14 46 8 67 67 NW 21 33 29.91 1013 10 16.0934 0 0
9:53 am 09:53 Cloudy 58 14.4 48 8.9 70 70 NW 18 30 29.94 1014 10 16.0934 0 0
10:53 am 10:53 Cloudy 60 15.6 48 8.9 65 65 NNW 17 28 29.94 1014 10 16.0934 0 0
11:19 am 11:19 Cloudy 60 15.6 49 9.4 67 67 NNW 17 28 29.91 1013 10 16.0934 0 0
11:53 am 11:53 Cloudy 62 16.7 49 9.4 62 62 N 16 26 29.94 1014 10 16.0934 0 0
12:53 pm 12:53 Cloudy 60 15.6 48 8.9 65 65 N 14 22 29.95 1014 10 16.0934 0 0
1:53 pm 13:53 Cloudy 62 16.7 48 8.9 60 60 N 14 22 29.94 1014 10 16.0934 0 0
2:53 pm 14:53 Mostly Cloudy 61 16.1 49 9.4 65 65 NNE 16 26 29.93 1014 10 16.0934 0 0
3:53 pm 15:53 Sunny 65 18.3 48 8.9 54 54 NNE 17 28 29.91 1013 10 16.0934 0 0
4:53 pm 16:53 Mostly Sunny 63 17.2 47 8.3 56 56 N 17 28 29.92 1013 10 16.0934 0 0
5:53 pm 17:53 Sunny 62 16.7 47 8.3 58 58 NNE 16 26 29.92 1013 10 16.0934 0 0
6:53 pm 18:53 Sunny 60 15.6 47 8.3 62 62 NE 9 15 29.94 1014 10 16.0934 0 0
7:53 pm 19:53 Clear 55 12.8 47 8.3 74 74 NNE 7 11 29.98 1015 10 16.0934 0 0
8:53 pm 20:53 Mostly Cloudy 52 11.1 48 8.9 86 86 Calm 30.01 1016 10 16.0934 0 0
9:53 pm 21:53 Mostly Cloudy 53 11.7 48 8.9 83 83 Calm 30.03 1017 10 16.0934 0 0
10:53 pm 22:53 Mostly Cloudy 52 11.1 49 9.4 89 89 Calm 30.03 1017 10 16.0934 0 0
11:53 pm 23:53 Cloudy 53 11.7 50 10 89 89 NW 5 7 30.02 1017 10 16.0934 0 0

Powered by AerisWeather